Location: Hanover
(52.3667°N, 9.7167°E)
Time: 05:30:17
(UTC+02:00)

ARIANE 6 FM1 Upper Stage - Pass Details

Date: 24 September 2024
Orbit: 564 x 594 km, 62.0° (Epoch: 06 October)

Event Time Altitude Azimuth Distance (km) Brightness Sun altitude
Rises 23:52:48 0° 289° (WNW) 2,813 6.8 -35.9°
Reaches altitude 10° 23:55:26 10° 305° (NW) 1,919 6.0 -36.1°
Enters shadow 23:56:11 14° 312° (NW) 1,702 5.7 -36.1°
